owner,sensor,date,latitude,longitude,vertical_datum,sea_water_practical_salinity,qcFlag 
SCCF RECON,ioos:station:SCCF:56:1,2014-12-01T00:00:00Z,26.4645,-82.1044,0.29,29.39,1111122 
SCCF RECON,ioos:station:SCCF:56:1,2014-12-01T01:00:00Z,26.4645,-82.1044,0.28,29.42,1111122 
SCCF RECON,ioos:station:SCCF:56:1,2014-12-01T02:00:00Z,26.4645,-82.1044,0.29,29.32,1111122 
SCCF RECON,ioos:station:SCCF:56:1,2014-12-01T03:00:00Z,26.4645,-82.1044,0.29,29.16,1111122 
SCCF RECON,ioos:station:SCCF:56:1,2014-12-01T04:00:00Z,26.4645,-82.1044,0.29,29.25,1111122 
SCCF RECON,ioos:station:SCCF:56:1,2014-12-01T05:00:00Z,26.4645,-82.1044,0.3,29.24,1111122 
SCCF RECON,ioos:station:SCCF:56:1,2014-12-01T06:00:00Z,26.4645,-82.1044,0.3,29.24,1111122 
SCCF RECON,ioos:station:SCCF:56:1,2014-12-01T07:00:00Z,26.4645,-82.1044,0.31,29.25,1111122 
SCCF RECON,ioos:station:SCCF:56:1,2014-12-01T08:00:00Z,26.4645,-82.1044,0.31,29.24,1111122 
SCCF RECON,ioos:station:SCCF:56:1,2014-12-01T09:00:00Z,26.4645,-82.1044,0.31,29.21,1111122 
SCCF RECON,ioos:station:SCCF:56:1,2014-12-01T10:00:00Z,26.4645,-82.1044,0.3,29.23,1111122 
SCCF RECON,ioos:station:SCCF:56:1,2014-12-01T11:00:00Z,26.4645,-82.1044,0.29,29.25,1111122 
SCCF RECON,ioos:station:SCCF:56:1,2014-12-01T12:00:00Z,26.4645,-82.1044,0.28,29.23,1111122 
SCCF RECON,ioos:station:SCCF:56:1,2014-12-01T13:00:00Z,26.4645,-82.1044,0.28,29.22,1111122 
SCCF RECON,ioos:station:SCCF:56:1,2014-12-01T14:00:00Z,26.4645,-82.1044,0.28,29.07,1111122 
SCCF RECON,ioos:station:SCCF:56:1,2014-12-01T15:00:00Z,26.4645,-82.1044,0.28,29.06,1111122 
SCCF RECON,ioos:station:SCCF:56:1,2014-12-01T16:00:00Z,26.4645,-82.1044,0.3,29.09,1111122 
SCCF RECON,ioos:station:SCCF:56:1,2014-12-01T17:00:00Z,26.4645,-82.1044,0.32,29.12,1111122 
SCCF RECON,ioos:station:SCCF:56:1,2014-12-01T18:00:00Z,26.4645,-82.1044,0.34,29.17,1111122 
SCCF RECON,ioos:station:SCCF:56:1,2014-12-01T19:00:00Z,26.4645,-82.1044,0.37,29.19,1111122 
SCCF RECON,ioos:station:SCCF:56:1,2014-12-01T20:00:00Z,26.4645,-82.1044,0.4,29.2,1111122 
SCCF RECON,ioos:station:SCCF:56:1,2014-12-01T21:00:00Z,26.4645,-82.1044,0.41,29.18,1111122 
SCCF RECON,ioos:station:SCCF:56:1,2014-12-01T22:00:00Z,26.4645,-82.1044,0.4,29.06,1111122 
SCCF RECON,ioos:station:SCCF:56:1,2014-12-01T23:00:00Z,26.4645,-82.1044,0.38,29.05,1111122 
SCCF RECON,ioos:station:SCCF:56:1,2014-12-02T00:00:00Z,26.4645,-82.1044,0.36,29.02,1111122 
SCCF RECON,ioos:station:SCCF:56:1,2014-12-02T01:00:00Z,26.4645,-82.1044,0.35,29.09,1111122 
SCCF RECON,ioos:station:SCCF:56:1,2014-12-02T02:00:00Z,26.4645,-82.1044,0.35,29.12,1111122 
SCCF RECON,ioos:station:SCCF:56:1,2014-12-02T03:00:00Z,26.4645,-82.1044,0.342,29.15,1111122 
SCCF RECON,ioos:station:SCCF:56:1,2014-12-02T04:00:00Z,26.4645,-82.1044,0.36,29.16,1111122 
SCCF RECON,ioos:station:SCCF:56:1,2014-12-02T05:00:00Z,26.4645,-82.1044,0.36,29.15,1111122 
SCCF RECON,ioos:station:SCCF:56:1,2014-12-02T06:00:00Z,26.4645,-82.1044,0.37,29.15,1111122 
SCCF RECON,ioos:station:SCCF:56:1,2014-12-02T07:00:00Z,26.4645,-82.1044,0.38,29.19,1111122 
SCCF RECON,ioos:station:SCCF:56:1,2014-12-02T08:00:00Z,26.4645,-82.1044,0.385,29.22,1111122 
SCCF RECON,ioos:station:SCCF:56:1,2014-12-02T09:00:00Z,26.4645,-82.1044,0.39,29.25,1111122 
SCCF RECON,ioos:station:SCCF:56:1,2014-12-02T10:00:00Z,26.4645,-82.1044,0.4,29.26,1111122 
SCCF RECON,ioos:station:SCCF:56:1,2014-12-02T11:00:00Z,26.4645,-82.1044,0.38,29.23,1111122 
SCCF RECON,ioos:station:SCCF:56:1,2014-12-02T12:00:00Z,26.4645,-82.1044,0.36,29.17,1111122 
SCCF RECON,ioos:station:SCCF:56:1,2014-12-02T13:00:00Z,26.4645,-82.1044,0.35,29.13,1111122 
SCCF RECON,ioos:station:SCCF:56:1,2014-12-02T14:00:00Z,26.4645,-82.1044,0.35,29.08,1111122 
SCCF RECON,ioos:station:SCCF:56:1,2014-12-02T15:00:00Z,26.4645,-82.1044,0.35,29.08,1111122 
SCCF RECON,ioos:station:SCCF:56:1,2014-12-02T16:00:00Z,26.4645,-82.1044,0.36,29.02,1111122 
SCCF RECON,ioos:station:SCCF:56:1,2014-12-02T17:00:00Z,26.4645,-82.1044,0.36,29.03,1111122 
SCCF RECON,ioos:station:SCCF:56:1,2014-12-02T18:00:00Z,26.4645,-82.1044,0.38,29.07,1111122 
SCCF RECON,ioos:station:SCCF:56:1,2014-12-02T19:00:00Z,26.4645,-82.1044,0.4,29.06,1111122 
SCCF RECON,ioos:station:SCCF:56:1,2014-12-02T20:00:00Z,26.4645,-82.1044,0.42,29.12,1111122 
SCCF RECON,ioos:station:SCCF:56:1,2014-12-02T21:00:00Z,26.4645,-82.1044,0.43,29.13,1111122 
SCCF RECON,ioos:station:SCCF:56:1,2014-12-02T22:00:00Z,26.4645,-82.1044,0.43,29.09,1111122 
SCCF RECON,ioos:station:SCCF:56:1,2014-12-02T23:00:00Z,26.4645,-82.1044,0.42,29.04,1111122 
SCCF RECON,ioos:station:SCCF:56:1,2014-12-03T00:00:00Z,26.4645,-82.1044,0.41,29.0,1111122 
SCCF RECON,ioos:station:SCCF:56:1,2014-12-03T01:00:00Z,26.4645,-82.1044,0.4,28.98,1111122 
SCCF RECON,ioos:station:SCCF:56:1,2014-12-03T02:00:00Z,26.4645,-82.1044,0.39,29.02,1111122 
SCCF RECON,ioos:station:SCCF:56:1,2014-12-03T03:00:00Z,26.4645,-82.1044,0.38,29.02,1111122 
SCCF RECON,ioos:station:SCCF:56:1,2014-12-03T04:00:00Z,26.4645,-82.1044,0.38,29.08,1111122 
SCCF RECON,ioos:station:SCCF:56:1,2014-12-03T05:00:00Z,26.4645,-82.1044,0.39,29.05,1111122 
SCCF RECON,ioos:station:SCCF:56:1,2014-12-03T06:00:00Z,26.4645,-82.1044,0.39,29.05,1111122 
SCCF RECON,ioos:station:SCCF:56:1,2014-12-03T07:00:00Z,26.4645,-82.1044,0.399,29.1,1111122 
SCCF RECON,ioos:station:SCCF:56:1,2014-12-03T08:00:00Z,26.4645,-82.1044,0.4,29.15,1111122 
SCCF RECON,ioos:station:SCCF:56:1,2014-12-03T09:00:00Z,26.4645,-82.1044,0.41,29.22,1111122 
SCCF RECON,ioos:station:SCCF:56:1,2014-12-03T10:00:00Z,26.4645,-82.1044,0.41,29.24,1111122 
SCCF RECON,ioos:station:SCCF:56:1,2014-12-03T11:00:00Z,26.4645,-82.1044,0.41,29.26,1111122 
SCCF RECON,ioos:station:SCCF:56:1,2014-12-03T12:00:00Z,26.4645,-82.1044,0.39,29.22,1111122 
SCCF RECON,ioos:station:SCCF:56:1,2014-12-03T13:00:00Z,26.4645,-82.1044,0.38,29.16,1111122 
SCCF RECON,ioos:station:SCCF:56:1,2014-12-03T14:00:00Z,26.4645,-82.1044,0.37,29.11,1111122 
SCCF RECON,ioos:station:SCCF:56:1,2014-12-03T15:00:00Z,26.4645,-82.1044,0.38,29.1,1111122 
SCCF RECON,ioos:station:SCCF:56:1,2014-12-03T16:00:00Z,26.4645,-82.1044,0.39,29.05,1111122 
SCCF RECON,ioos:station:SCCF:56:1,2014-12-03T17:00:00Z,26.4645,-82.1044,0.41,29.05,1111122 
SCCF RECON,ioos:station:SCCF:56:1,2014-12-03T18:00:00Z,26.4645,-82.1044,0.41,29.07,1111122 
SCCF RECON,ioos:station:SCCF:56:1,2014-12-03T19:00:00Z,26.4645,-82.1044,0.42,29.07,1111122 
SCCF RECON,ioos:station:SCCF:56:1,2014-12-03T20:00:00Z,26.4645,-82.1044,0.446,29.12,1111122 
SCCF RECON,ioos:station:SCCF:56:1,2014-12-03T21:00:00Z,26.4645,-82.1044,0.47,29.17,1111122 
SCCF RECON,ioos:station:SCCF:56:1,2014-12-03T22:00:00Z,26.4645,-82.1044,0.49,29.2,1111122 
SCCF RECON,ioos:station:SCCF:56:1,2014-12-03T23:00:00Z,26.4645,-82.1044,0.47,29.1,1111122 
SCCF RECON,ioos:station:SCCF:56:1,2014-12-04T00:00:00Z,26.4645,-82.1044,0.47,29.0,1111122 
SCCF RECON,ioos:station:SCCF:56:1,2014-12-04T01:00:00Z,26.4645,-82.1044,0.44,28.82,1111122 
SCCF RECON,ioos:station:SCCF:56:1,2014-12-04T02:00:00Z,26.4645,-82.1044,0.43,28.77,1111122 
SCCF RECON,ioos:station:SCCF:56:1,2014-12-04T03:00:00Z,26.4645,-82.1044,0.42,28.77,1111122 
SCCF RECON,ioos:station:SCCF:56:1,2014-12-04T04:00:00Z,26.4645,-82.1044,0.42,28.8,1111122 
SCCF RECON,ioos:station:SCCF:56:1,2014-12-04T05:00:00Z,26.4645,-82.1044,0.42,28.82,1111122 
SCCF RECON,ioos:station:SCCF:56:1,2014-12-04T06:00:00Z,26.4645,-82.1044,0.42,28.91,1111122 
SCCF RECON,ioos:station:SCCF:56:1,2014-12-04T07:00:00Z,26.4645,-82.1044,0.429,29.02,1111122 
SCCF RECON,ioos:station:SCCF:56:1,2014-12-04T08:00:00Z,26.4645,-82.1044,0.43,29.09,1111122 
SCCF RECON,ioos:station:SCCF:56:1,2014-12-04T09:00:00Z,26.4645,-82.1044,0.43,29.19,1111122 
SCCF RECON,ioos:station:SCCF:56:1,2014-12-04T10:00:00Z,26.4645,-82.1044,0.43,29.25,1111122 
SCCF RECON,ioos:station:SCCF:56:1,2014-12-04T11:00:00Z,26.4645,-82.1044,0.43,29.3,1111122 
SCCF RECON,ioos:station:SCCF:56:1,2014-12-04T12:00:00Z,26.4645,-82.1044,0.42,29.33,1111122 
SCCF RECON,ioos:station:SCCF:56:1,2014-12-04T13:00:00Z,26.4645,-82.1044,0.41,29.21,1111122 
SCCF RECON,ioos:station:SCCF:56:1,2014-12-04T14:00:00Z,26.4645,-82.1044,0.4,29.14,1111122 
SCCF RECON,ioos:station:SCCF:56:1,2014-12-04T15:00:00Z,26.4645,-82.1044,0.41,29.07,1111122 
SCCF RECON,ioos:station:SCCF:56:1,2014-12-04T16:00:00Z,26.4645,-82.1044,0.42,28.98,1111122 
SCCF RECON,ioos:station:SCCF:56:1,2014-12-04T17:00:00Z,26.4645,-82.1044,0.43,28.95,1111122 
SCCF RECON,ioos:station:SCCF:56:1,2014-12-04T18:00:00Z,26.4645,-82.1044,0.44,28.93,1111122 
SCCF RECON,ioos:station:SCCF:56:1,2014-12-04T19:00:00Z,26.4645,-82.1044,0.46,28.97,1111122 
SCCF RECON,ioos:station:SCCF:56:1,2014-12-04T20:00:00Z,26.4645,-82.1044,0.476,29.01,1111122 
SCCF RECON,ioos:station:SCCF:56:1,2014-12-04T21:00:00Z,26.4645,-82.1044,0.49,29.06,1111122 
SCCF RECON,ioos:station:SCCF:56:1,2014-12-04T22:00:00Z,26.4645,-82.1044,0.5,29.1,1111122 
SCCF RECON,ioos:station:SCCF:56:1,2014-12-04T23:00:00Z,26.4645,-82.1044,0.51,29.15,1111122 
SCCF RECON,ioos:station:SCCF:56:1,2014-12-05T00:00:00Z,26.4645,-82.1044,0.492,29.05,1111122 
SCCF RECON,ioos:station:SCCF:56:1,2014-12-05T01:00:00Z,26.4645,-82.1044,0.481,28.95,1111122 
SCCF RECON,ioos:station:SCCF:56:1,2014-12-05T02:00:00Z,26.4645,-82.1044,0.46,28.75,1111122 
SCCF RECON,ioos:station:SCCF:56:1,2014-12-05T03:00:00Z,26.4645,-82.1044,0.45,28.72,1111122 
SCCF RECON,ioos:station:SCCF:56:1,2014-12-05T04:00:00Z,26.4645,-82.1044,0.45,28.89,1111122 
SCCF RECON,ioos:station:SCCF:56:1,2014-12-05T05:00:00Z,26.4645,-82.1044,0.455,29.09,1111122 
SCCF RECON,ioos:station:SCCF:56:1,2014-12-05T06:00:00Z,26.4645,-82.1044,0.451,28.85,1111122 
SCCF RECON,ioos:station:SCCF:56:1,2014-12-05T07:00:00Z,26.4645,-82.1044,0.45,28.96,1111122 
SCCF RECON,ioos:station:SCCF:56:1,2014-12-05T08:00:00Z,26.4645,-82.1044,0.46,29.03,1111122 
SCCF RECON,ioos:station:SCCF:56:1,2014-12-05T09:00:00Z,26.4645,-82.1044,0.46,29.12,1111122 
SCCF RECON,ioos:station:SCCF:56:1,2014-12-05T10:00:00Z,26.4645,-82.1044,0.46,29.2,1111122 
SCCF RECON,ioos:station:SCCF:56:1,2014-12-05T11:00:00Z,26.4645,-82.1044,0.46,29.25,1111122 
SCCF RECON,ioos:station:SCCF:56:1,2014-12-05T12:00:00Z,26.4645,-82.1044,0.46,29.32,1111122 
SCCF RECON,ioos:station:SCCF:56:1,2014-12-05T13:00:00Z,26.4645,-82.1044,0.45,29.29,1111122 
SCCF RECON,ioos:station:SCCF:56:1,2014-12-05T14:00:00Z,26.4645,-82.1044,0.44,29.18,1111122 
SCCF RECON,ioos:station:SCCF:56:1,2014-12-05T15:00:00Z,26.4645,-82.1044,0.44,29.12,1111122 
SCCF RECON,ioos:station:SCCF:56:1,2014-12-05T16:00:00Z,26.4645,-82.1044,0.45,29.04,1111122 
SCCF RECON,ioos:station:SCCF:56:1,2014-12-05T17:00:00Z,26.4645,-82.1044,0.46,28.98,1111122 
SCCF RECON,ioos:station:SCCF:56:1,2014-12-05T18:00:00Z,26.4645,-82.1044,0.477,28.93,1111122 
SCCF RECON,ioos:station:SCCF:56:1,2014-12-05T19:00:00Z,26.4645,-82.1044,0.49,28.75,1111122 
SCCF RECON,ioos:station:SCCF:56:1,2014-12-05T20:00:00Z,26.4645,-82.1044,0.49,28.77,1111122 
SCCF RECON,ioos:station:SCCF:56:1,2014-12-05T21:00:00Z,26.4645,-82.1044,0.49,28.88,1111122 
SCCF RECON,ioos:station:SCCF:56:1,2014-12-05T22:00:00Z,26.4645,-82.1044,0.49,28.96,1111122 
SCCF RECON,ioos:station:SCCF:56:1,2014-12-05T23:00:00Z,26.4645,-82.1044,0.491,28.98,1111122 
SCCF RECON,ioos:station:SCCF:56:1,2014-12-06T00:00:00Z,26.4645,-82.1044,0.5,28.96,1111122 
SCCF RECON,ioos:station:SCCF:56:1,2014-12-06T01:00:00Z,26.4645,-82.1044,0.49,28.78,1111122 
SCCF RECON,ioos:station:SCCF:56:1,2014-12-06T02:00:00Z,26.4645,-82.1044,0.48,28.72,1111122 
SCCF RECON,ioos:station:SCCF:56:1,2014-12-06T03:00:00Z,26.4645,-82.1044,0.47,28.69,1111122 
SCCF RECON,ioos:station:SCCF:56:1,2014-12-06T04:00:00Z,26.4645,-82.1044,0.47,28.61,1111122 
SCCF RECON,ioos:station:SCCF:56:1,2014-12-06T05:00:00Z,26.4645,-82.1044,0.46,28.57,1111122 
SCCF RECON,ioos:station:SCCF:56:1,2014-12-06T06:00:00Z,26.4645,-82.1044,0.46,28.68,1111122 
SCCF RECON,ioos:station:SCCF:56:1,2014-12-06T07:00:00Z,26.4645,-82.1044,0.46,28.68,1111122 
SCCF RECON,ioos:station:SCCF:56:1,2014-12-06T08:00:00Z,26.4645,-82.1044,0.46,28.8,1111122 
SCCF RECON,ioos:station:SCCF:56:1,2014-12-06T09:00:00Z,26.4645,-82.1044,0.47,28.93,1111122 
SCCF RECON,ioos:station:SCCF:56:1,2014-12-06T10:00:00Z,26.4645,-82.1044,0.47,28.99,1111122 
SCCF RECON,ioos:station:SCCF:56:1,2014-12-06T11:00:00Z,26.4645,-82.1044,0.47,29.05,1111122 
SCCF RECON,ioos:station:SCCF:56:1,2014-12-06T12:00:00Z,26.4645,-82.1044,0.47,29.12,1111122 
SCCF RECON,ioos:station:SCCF:56:1,2014-12-06T13:00:00Z,26.4645,-82.1044,0.47,29.14,1111122 
SCCF RECON,ioos:station:SCCF:56:1,2014-12-06T14:00:00Z,26.4645,-82.1044,0.47,29.14,1111122 
SCCF RECON,ioos:station:SCCF:56:1,2014-12-06T15:00:00Z,26.4645,-82.1044,0.48,28.99,1111122 
SCCF RECON,ioos:station:SCCF:56:1,2014-12-06T16:00:00Z,26.4645,-82.1044,0.49,28.87,1111122 
SCCF RECON,ioos:station:SCCF:56:1,2014-12-06T17:00:00Z,26.4645,-82.1044,0.49,28.82,1111122 
SCCF RECON,ioos:station:SCCF:56:1,2014-12-06T18:00:00Z,26.4645,-82.1044,0.51,28.82,1111122 
SCCF RECON,ioos:station:SCCF:56:1,2014-12-06T19:00:00Z,26.4645,-82.1044,0.53,28.77,1111122 
SCCF RECON,ioos:station:SCCF:56:1,2014-12-06T20:00:00Z,26.4645,-82.1044,0.52,28.73,1111122 
SCCF RECON,ioos:station:SCCF:56:1,2014-12-06T21:00:00Z,26.4645,-82.1044,0.54,28.81,1111122 
SCCF RECON,ioos:station:SCCF:56:1,2014-12-06T22:00:00Z,26.4645,-82.1044,0.54,28.87,1111122 
SCCF RECON,ioos:station:SCCF:56:1,2014-12-06T23:00:00Z,26.4645,-82.1044,0.55,28.9,1111122 
SCCF RECON,ioos:station:SCCF:56:1,2014-12-07T00:00:00Z,26.4645,-82.1044,0.56,28.93,1111122 
SCCF RECON,ioos:station:SCCF:56:1,2014-12-07T01:00:00Z,26.4645,-82.1044,0.55,28.86,1111122 
SCCF RECON,ioos:station:SCCF:56:1,2014-12-07T02:00:00Z,26.4645,-82.1044,0.54,28.85,1111122 
SCCF RECON,ioos:station:SCCF:56:1,2014-12-07T03:00:00Z,26.4645,-82.1044,0.53,28.83,1111122 
SCCF RECON,ioos:station:SCCF:56:1,2014-12-07T04:00:00Z,26.4645,-82.1044,0.514,28.81,1111122 
SCCF RECON,ioos:station:SCCF:56:1,2014-12-07T05:00:00Z,26.4645,-82.1044,0.49,28.79,1111122 
SCCF RECON,ioos:station:SCCF:56:1,2014-12-07T06:00:00Z,26.4645,-82.1044,0.48,28.78,1111122 
SCCF RECON,ioos:station:SCCF:56:1,2014-12-07T07:00:00Z,26.4645,-82.1044,0.49,28.83,1111122 
SCCF RECON,ioos:station:SCCF:56:1,2014-12-07T08:00:00Z,26.4645,-82.1044,0.5,28.88,1111122 
SCCF RECON,ioos:station:SCCF:56:1,2014-12-07T09:00:00Z,26.4645,-82.1044,0.5,28.92,1111122 
SCCF RECON,ioos:station:SCCF:56:1,2014-12-07T10:00:00Z,26.4645,-82.1044,0.51,28.99,1111122 
SCCF RECON,ioos:station:SCCF:56:1,2014-12-07T11:00:00Z,26.4645,-82.1044,0.51,29.05,1111122 
SCCF RECON,ioos:station:SCCF:56:1,2014-12-07T12:00:00Z,26.4645,-82.1044,0.51,29.11,1111122 
SCCF RECON,ioos:station:SCCF:56:1,2014-12-07T13:00:00Z,26.4645,-82.1044,0.5,29.16,1111122 
SCCF RECON,ioos:station:SCCF:56:1,2014-12-07T14:00:00Z,26.4645,-82.1044,0.5,29.23,1111122 
SCCF RECON,ioos:station:SCCF:56:1,2014-12-07T15:00:00Z,26.4645,-82.1044,0.497,29.12,1111122 
SCCF RECON,ioos:station:SCCF:56:1,2014-12-07T16:00:00Z,26.4645,-82.1044,0.481,28.98,1111122 
SCCF RECON,ioos:station:SCCF:56:1,2014-12-07T17:00:00Z,26.4645,-82.1044,0.5,28.89,1111122 
SCCF RECON,ioos:station:SCCF:56:1,2014-12-07T18:00:00Z,26.4645,-82.1044,0.51,28.88,1111122 
SCCF RECON,ioos:station:SCCF:56:1,2014-12-07T19:00:00Z,26.4645,-82.1044,0.52,28.89,1111122 
SCCF RECON,ioos:station:SCCF:56:1,2014-12-07T20:00:00Z,26.4645,-82.1044,0.52,28.86,1111122 
SCCF RECON,ioos:station:SCCF:56:1,2014-12-07T21:00:00Z,26.4645,-82.1044,0.52,28.91,1111122 
SCCF RECON,ioos:station:SCCF:56:1,2014-12-07T22:00:00Z,26.4645,-82.1044,0.53,28.94,1111122 
SCCF RECON,ioos:station:SCCF:56:1,2014-12-07T23:00:00Z,26.4645,-82.1044,0.53,28.98,1111122 
SCCF RECON,ioos:station:SCCF:56:1,2014-12-08T00:00:00Z,26.4645,-82.1044,0.53,29.0,1111122 
SCCF RECON,ioos:station:SCCF:56:1,2014-12-08T01:00:00Z,26.4645,-82.1044,0.52,28.98,1111122 
SCCF RECON,ioos:station:SCCF:56:1,2014-12-08T02:00:00Z,26.4645,-82.1044,0.49,28.94,1111122 
SCCF RECON,ioos:station:SCCF:56:1,2014-12-08T03:00:00Z,26.4645,-82.1044,0.49,28.94,1111122 
SCCF RECON,ioos:station:SCCF:56:1,2014-12-08T04:00:00Z,26.4645,-82.1044,0.49,28.93,1111122 
SCCF RECON,ioos:station:SCCF:56:1,2014-12-08T05:00:00Z,26.4645,-82.1044,0.49,28.91,1111122 
SCCF RECON,ioos:station:SCCF:56:1,2014-12-08T06:00:00Z,26.4645,-82.1044,0.47,28.54,1111122 
SCCF RECON,ioos:station:SCCF:56:1,2014-12-08T07:00:00Z,26.4645,-82.1044,0.478,28.79,1111122 
SCCF RECON,ioos:station:SCCF:56:1,2014-12-08T08:00:00Z,26.4645,-82.1044,0.47,28.74,1111122 
SCCF RECON,ioos:station:SCCF:56:1,2014-12-08T09:00:00Z,26.4645,-82.1044,0.46,28.79,1111122 
SCCF RECON,ioos:station:SCCF:56:1,2014-12-08T10:00:00Z,26.4645,-82.1044,0.45,28.9,1111122 
SCCF RECON,ioos:station:SCCF:56:1,2014-12-08T11:00:00Z,26.4645,-82.1044,0.45,29.0,1111122 
SCCF RECON,ioos:station:SCCF:56:1,2014-12-08T12:00:00Z,26.4645,-82.1044,0.44,29.09,1111122 
SCCF RECON,ioos:station:SCCF:56:1,2014-12-08T13:00:00Z,26.4645,-82.1044,0.43,29.16,1111122 
SCCF RECON,ioos:station:SCCF:56:1,2014-12-08T14:00:00Z,26.4645,-82.1044,0.43,29.24,1111122 
SCCF RECON,ioos:station:SCCF:56:1,2014-12-08T15:00:00Z,26.4645,-82.1044,0.42,29.26,1111122 
SCCF RECON,ioos:station:SCCF:56:1,2014-12-08T16:00:00Z,26.4645,-82.1044,0.43,29.02,1111122 
SCCF RECON,ioos:station:SCCF:56:1,2014-12-08T17:00:00Z,26.4645,-82.1044,0.44,28.93,1111122 
SCCF RECON,ioos:station:SCCF:56:1,2014-12-08T18:00:00Z,26.4645,-82.1044,0.452,28.91,1111122 
SCCF RECON,ioos:station:SCCF:56:1,2014-12-08T19:00:00Z,26.4645,-82.1044,0.476,28.87,1111122 
SCCF RECON,ioos:station:SCCF:56:1,2014-12-08T20:00:00Z,26.4645,-82.1044,0.49,28.83,1111122 
SCCF RECON,ioos:station:SCCF:56:1,2014-12-08T21:00:00Z,26.4645,-82.1044,0.489,28.74,1111122 
SCCF RECON,ioos:station:SCCF:56:1,2014-12-08T22:00:00Z,26.4645,-82.1044,0.48,28.76,1111122 
SCCF RECON,ioos:station:SCCF:56:1,2014-12-08T23:00:00Z,26.4645,-82.1044,0.48,28.82,1111122 
SCCF RECON,ioos:station:SCCF:56:1,2014-12-09T00:00:00Z,26.4645,-82.1044,0.48,28.83,1111122 
SCCF RECON,ioos:station:SCCF:56:1,2014-12-09T01:00:00Z,26.4645,-82.1044,0.47,28.86,1111122 
SCCF RECON,ioos:station:SCCF:56:1,2014-12-09T02:00:00Z,26.4645,-82.1044,0.46,28.88,1111122 
SCCF RECON,ioos:station:SCCF:56:1,2014-12-09T03:00:00Z,26.4645,-82.1044,0.44,29.03,1111122 
SCCF RECON,ioos:station:SCCF:56:1,2014-12-09T04:00:00Z,26.4645,-82.1044,0.42,29.01,1111122 
SCCF RECON,ioos:station:SCCF:56:1,2014-12-09T05:00:00Z,26.4645,-82.1044,0.42,29.01,1111122 
SCCF RECON,ioos:station:SCCF:56:1,2014-12-09T06:00:00Z,26.4645,-82.1044,0.42,29.03,1111122 
SCCF RECON,ioos:station:SCCF:56:1,2014-12-09T07:00:00Z,26.4645,-82.1044,0.42,28.79,1111122 
SCCF RECON,ioos:station:SCCF:56:1,2014-12-09T08:00:00Z,26.4645,-82.1044,0.42,28.76,1111122 
SCCF RECON,ioos:station:SCCF:56:1,2014-12-09T09:00:00Z,26.4645,-82.1044,0.411,28.85,1111122 
SCCF RECON,ioos:station:SCCF:56:1,2014-12-09T10:00:00Z,26.4645,-82.1044,0.41,28.91,1111122 
SCCF RECON,ioos:station:SCCF:56:1,2014-12-09T11:00:00Z,26.4645,-82.1044,0.4,29.02,1111122 
SCCF RECON,ioos:station:SCCF:56:1,2014-12-09T12:00:00Z,26.4645,-82.1044,0.39,29.09,1111122 
SCCF RECON,ioos:station:SCCF:56:1,2014-12-09T13:00:00Z,26.4645,-82.1044,0.38,29.18,1111122 
SCCF RECON,ioos:station:SCCF:56:1,2014-12-09T14:00:00Z,26.4645,-82.1044,0.37,29.25,1111122 
SCCF RECON,ioos:station:SCCF:56:1,2014-12-09T15:00:00Z,26.4645,-82.1044,0.36,29.32,1111122 
SCCF RECON,ioos:station:SCCF:56:1,2014-12-09T16:00:00Z,26.4645,-82.1044,0.36,29.27,1111122 
SCCF RECON,ioos:station:SCCF:56:1,2014-12-09T17:00:00Z,26.4645,-82.1044,0.35,29.21,1111122 
SCCF RECON,ioos:station:SCCF:56:1,2014-12-09T18:00:00Z,26.4645,-82.1044,0.36,29.19,1111122 
SCCF RECON,ioos:station:SCCF:56:1,2014-12-09T19:00:00Z,26.4645,-82.1044,0.362,29.2,1111122 
SCCF RECON,ioos:station:SCCF:56:1,2014-12-09T20:00:00Z,26.4645,-82.1044,0.36,29.22,1111122 
SCCF RECON,ioos:station:SCCF:56:1,2014-12-09T21:00:00Z,26.4645,-82.1044,0.37,29.16,1111122 
SCCF RECON,ioos:station:SCCF:56:1,2014-12-09T22:00:00Z,26.4645,-82.1044,0.37,29.17,1111122 
SCCF RECON,ioos:station:SCCF:56:1,2014-12-09T23:00:00Z,26.4645,-82.1044,0.37,29.2,1111122 
SCCF RECON,ioos:station:SCCF:56:1,2014-12-10T00:00:00Z,26.4645,-82.1044,0.36,29.21,1111122 
SCCF RECON,ioos:station:SCCF:56:1,2014-12-10T01:00:00Z,26.4645,-82.1044,0.35,29.23,1111122 
SCCF RECON,ioos:station:SCCF:56:1,2014-12-10T02:00:00Z,26.4645,-82.1044,0.34,29.33,1111122 
SCCF RECON,ioos:station:SCCF:56:1,2014-12-10T03:00:00Z,26.4645,-82.1044,0.321,29.35,1111122 
SCCF RECON,ioos:station:SCCF:56:1,2014-12-10T04:00:00Z,26.4645,-82.1044,0.29,29.62,1111122 
SCCF RECON,ioos:station:SCCF:56:1,2014-12-10T05:00:00Z,26.4645,-82.1044,0.25,29.8,1111122 
SCCF RECON,ioos:station:SCCF:56:1,2014-12-10T06:00:00Z,26.4645,-82.1044,0.23,29.8,1111122 
SCCF RECON,ioos:station:SCCF:56:1,2014-12-10T07:00:00Z,26.4645,-82.1044,0.22,29.8,1111122 
SCCF RECON,ioos:station:SCCF:56:1,2014-12-10T08:00:00Z,26.4645,-82.1044,0.24,29.83,1111122 
SCCF RECON,ioos:station:SCCF:56:1,2014-12-10T09:00:00Z,26.4645,-82.1044,0.24,29.8,1111122 
SCCF RECON,ioos:station:SCCF:56:1,2014-12-10T10:00:00Z,26.4645,-82.1044,0.239,29.65,1111122 
SCCF RECON,ioos:station:SCCF:56:1,2014-12-10T11:00:00Z,26.4645,-82.1044,0.23,29.61,1111122 
SCCF RECON,ioos:station:SCCF:56:1,2014-12-10T12:00:00Z,26.4645,-82.1044,0.201,29.64,1111122 
SCCF RECON,ioos:station:SCCF:56:1,2014-12-10T13:00:00Z,26.4645,-82.1044,0.19,29.67,1111122 
SCCF RECON,ioos:station:SCCF:56:1,2014-12-10T14:00:00Z,26.4645,-82.1044,0.17,29.73,1111122 
SCCF RECON,ioos:station:SCCF:56:1,2014-12-10T15:00:00Z,26.4645,-82.1044,0.162,29.79,1111122 
SCCF RECON,ioos:station:SCCF:56:1,2014-12-10T16:00:00Z,26.4645,-82.1044,0.16,29.79,1111122 
SCCF RECON,ioos:station:SCCF:56:1,2014-12-10T17:00:00Z,26.4645,-82.1044,0.22,31.81,1111122 
SCCF RECON,ioos:station:SCCF:56:1,2014-12-10T18:00:00Z,26.4645,-82.1044,0.26,31.11,1111122 
SCCF RECON,ioos:station:SCCF:56:1,2014-12-10T19:00:00Z,26.4645,-82.1044,0.28,30.91,1111122 
SCCF RECON,ioos:station:SCCF:56:1,2014-12-10T20:00:00Z,26.4645,-82.1044,0.29,31.98,1111122 
SCCF RECON,ioos:station:SCCF:56:1,2014-12-10T21:00:00Z,26.4645,-82.1044,0.28,32.27,1111122 
SCCF RECON,ioos:station:SCCF:56:1,2014-12-10T22:00:00Z,26.4645,-82.1044,0.28,32.17,1111122 
SCCF RECON,ioos:station:SCCF:56:1,2014-12-10T23:00:00Z,26.4645,-82.1044,0.28,31.86,1111122 
SCCF RECON,ioos:station:SCCF:56:1,2014-12-11T00:00:00Z,26.4645,-82.1044,0.28,31.56,1111122 
SCCF RECON,ioos:station:SCCF:56:1,2014-12-11T01:00:00Z,26.4645,-82.1044,0.28,31.43,1111122 
SCCF RECON,ioos:station:SCCF:56:1,2014-12-11T02:00:00Z,26.4645,-82.1044,0.28,31.3,1111122 
SCCF RECON,ioos:station:SCCF:56:1,2014-12-11T03:00:00Z,26.4645,-82.1044,0.27,31.0,1111122 
SCCF RECON,ioos:station:SCCF:56:1,2014-12-11T04:00:00Z,26.4645,-82.1044,0.25,30.45,1111122 
SCCF RECON,ioos:station:SCCF:56:1,2014-12-11T05:00:00Z,26.4645,-82.1044,0.24,30.53,1111122 
SCCF RECON,ioos:station:SCCF:56:1,2014-12-11T06:00:00Z,26.4645,-82.1044,0.24,30.71,1111122 
SCCF RECON,ioos:station:SCCF:56:1,2014-12-11T07:00:00Z,26.4645,-82.1044,0.24,30.36,1111122 
SCCF RECON,ioos:station:SCCF:56:1,2014-12-11T08:00:00Z,26.4645,-82.1044,0.238,30.58,1111122 
SCCF RECON,ioos:station:SCCF:56:1,2014-12-11T09:00:00Z,26.4645,-82.1044,0.247,30.86,1111122 
SCCF RECON,ioos:station:SCCF:56:1,2014-12-11T10:00:00Z,26.4645,-82.1044,0.23,30.61,1111122 
SCCF RECON,ioos:station:SCCF:56:1,2014-12-11T11:00:00Z,26.4645,-82.1044,0.22,30.7,1111122 
SCCF RECON,ioos:station:SCCF:56:1,2014-12-11T12:00:00Z,26.4645,-82.1044,0.217,30.71,1111122 
SCCF RECON,ioos:station:SCCF:56:1,2014-12-11T13:00:00Z,26.4645,-82.1044,0.21,30.79,1111122 
SCCF RECON,ioos:station:SCCF:56:1,2014-12-11T14:00:00Z,26.4645,-82.1044,0.2,30.76,1111122 
SCCF RECON,ioos:station:SCCF:56:1,2014-12-11T15:00:00Z,26.4645,-82.1044,0.2,30.73,1111122 
SCCF RECON,ioos:station:SCCF:56:1,2014-12-11T16:00:00Z,26.4645,-82.1044,0.21,30.69,1111122 
SCCF RECON,ioos:station:SCCF:56:1,2014-12-11T17:00:00Z,26.4645,-82.1044,0.22,30.69,1111122 
SCCF RECON,ioos:station:SCCF:56:1,2014-12-11T18:00:00Z,26.4645,-82.1044,0.27,30.78,1111122 
SCCF RECON,ioos:station:SCCF:56:1,2014-12-11T19:00:00Z,26.4645,-82.1044,0.27,30.77,1111122 